Location: Isle of Man Observatory
(54.1776°N, 4.6264°W)
Time: 04:08:12
(UTC+02:00)

ARIANE 6 FM1 Upper Stage - Visible Passes

Search period start: 13 July 2025 00:00
Search period end: 23 July 2025 00:00
Orbit: 529 x 612 km, 62.0° (Epoch: 12 July)

Date Brightness Start Highest point End Pass type
(mag) Time Alt. Az. Time Alt. Az. Time Alt. Az.
19 Jul 4.9 04:14:33 10° SSE 04:16:43 14° ESE 04:18:54 10° E visible
20 Jul 4.4 04:15:23 11° SSE 04:18:05 20° ESE 04:21:01 10° ENE visible
21 Jul 3.9 04:16:51 14° S 04:19:27 27° SE 04:22:52 10° ENE visible
22 Jul 3.4 04:18:16 17° S 04:20:53 37° SE 04:24:36 10° ENE visible
